User: anonymous   Login
Location: Observatory
(49.4490°N, 2.6360°W)
Time: 01:03:44
(UTC+01:00)
Language:

ISS - Orbit

View from above orbital plane
View from above orbital plane
View from above satellite
View from above satellite

Ground track
Ground track

The orbit data is extracted from the following two-line orbital elements,

1 25544U 98067A   24140.86150006  .00028707  00000-0  48100-3 0  9997
2 25544  51.6386  95.7599 0003296 185.6650 271.8346 15.51603681454152
Epoch (UTC): 19 May 2024 20:40:33
Eccentricity: 0.0003296
inclination: 51.6386°
perigee height: 410 km
apogee height: 414 km
right ascension of ascending node: 95.7599°
argument of perigee: 185.6650°
revolutions per day: 15.51603681
mean anomaly at epoch: 271.8346°
orbit number at epoch: 45415

The dashed part of the orbit path shows where the satellite is in the earth's shadow,  

DLR